Weather History for Montauk, NY

Change the Weather History Date:

Wednesday, May 8, 2013

  Actual Average (KHTO) Record (KHTO)
Temperature  
Mean Temperature 58 °F -  
Max Temperature 64 °F 60 °F 86 °F (2000)
Min Temperature 54 °F 43 °F 32 °F (1968)
Degree Days  
Heating Degree Days 7    
Growing Degree Days 8 (Base 50)    
Moisture  
Dew Point 56 °F    
Average Humidity 92    
Maximum Humidity 100    
Minimum Humidity 86    
Precipitation  
Precipitation 0.02 in - - ()
Sea Level Pressure  
Sea Level Pressure 30.11 in    
Wind  
Wind Speed 5 mph (ESE)    
Max Wind Speed 14 mph    
Max Gust Speed 29 mph    
Averages and records for this station are not official NWS values.
T = Trace of Precipitation, MM = Missing Value Source: NWS Daily Summary

Daily Weather History Graph

Daily Weather History Graph

Search for Another Location

Airport:

Trip Planner

Search our weather history database for the weather conditions in past years. The results will help you decide how hot, cold, wet, or windy it might be!

Date:

Astronomy

May. 08, 2013 Rise Set
Actual Time 5:36 AM EDT 7:52 PM EDT
Civil Twilight 5:06 AM EDT 8:22 PM EDT
Nautical Twilight 4:28 AM EDT 9:00 PM EDT
Astronomical Twilight 3:47 AM EDT 9:42 PM EDT
Moon 4:43 AM EDT (5/8) 6:47 PM EDT (5/8)
Length of Visible Light 15h 16m
Length of Day
14h 15m
Waning Crescent, 2% of the Moon is Illuminated
May 8
Waning Crescent
May 9
New
May 18
First Quarter
May 25
Full
May 31
Last Quarter

Hourly Weather History & Observations

Time (EDT) Temp. Dew Point Humidity Pressure Visibility Wind Dir Wind Speed Gust Speed Precip Events Conditions
12:54 AM 55.9 °F 54.0 °F 93% 30.16 in - Calm Calm - N/A   Unknown
1:54 AM 57.9 °F 55.9 °F 93% 30.14 in - Variable 5.8 mph - N/A   Unknown
2:54 AM 57.9 °F 55.9 °F 93% 30.13 in - SE 5.8 mph - N/A   Unknown
3:54 AM 57.0 °F 55.0 °F 93% 30.12 in - Calm Calm - N/A   Unknown
4:54 AM 55.0 °F 53.1 °F 93% 30.12 in - Calm Calm - N/A   Unknown
5:54 AM 55.0 °F 53.1 °F 93% 30.13 in - ENE 5.8 mph - N/A   Unknown
6:54 AM 57.9 °F 55.9 °F 93% 30.14 in - NE 6.9 mph - N/A   Unknown
7:54 AM 62.1 °F 57.9 °F 86% 30.14 in - Variable 4.6 mph - N/A   Unknown
8:54 AM 62.1 °F 57.9 °F 86% 30.15 in - East 10.4 mph 16.1 mph N/A   Unknown
9:54 AM 62.1 °F 57.9 °F 86% 30.15 in - East 11.5 mph 21.9 mph N/A   Unknown
10:54 AM 61.0 °F 57.0 °F 87% 30.15 in - East 8.1 mph 21.9 mph N/A   Unknown
11:54 AM 61.0 °F 59.0 °F 93% 30.13 in - East 13.8 mph 24.2 mph 0.01 in   Unknown
12:54 PM 61.0 °F 57.0 °F 87% 30.10 in - East 12.7 mph 28.8 mph N/A   Unknown
1:54 PM 59.0 °F 57.0 °F 93% 30.09 in - ESE 13.8 mph 26.5 mph N/A   Unknown
2:54 PM 61.0 °F 57.0 °F 87% 30.09 in - ESE 10.4 mph 23.0 mph N/A   Unknown
3:54 PM 59.0 °F 55.9 °F 90% 30.09 in - ESE 13.8 mph 26.5 mph N/A   Unknown
4:54 PM 59.0 °F 55.9 °F 90% 30.08 in - ESE 9.2 mph 16.1 mph N/A   Unknown
5:54 PM 57.9 °F 55.9 °F 93% 30.06 in - Variable 4.6 mph - 0.01 in   Unknown
6:54 PM 57.0 °F 55.0 °F 93% 30.06 in - Variable 5.8 mph - N/A   Unknown
7:54 PM 55.0 °F 54.0 °F 96% 30.07 in - ESE 6.9 mph - N/A   Unknown
8:54 PM 55.9 °F 55.0 °F 97% 30.06 in - Variable 3.5 mph - N/A   Unknown
9:54 PM 54.0 °F 54.0 °F 100% 30.07 in - SSE 3.5 mph - N/A   Unknown
10:54 PM 54.0 °F 54.0 °F 100% 30.07 in - Calm Calm - N/A   Unknown
11:54 PM 54.0 °F 54.0 °F 100% 30.06 in - Calm Calm - N/A   Unknown